FW9069 Weather Reports


time (UTC)temp
C
wind
direction
speed
KPH
gust
KPH
rain 1hr
cm
rain 24hr
cm
rain mn
cm
humidity
%
barometer
mb
20260905044822 12 70 3.2 8.0 0.00 0.61 0.61 94 1015.9
20260905043353 12 71 1.6 8.0 0.00 0.64 0.61 94 1015.7
20260905041839 12 129 3.2 6.4 0.00 0.64 0.61 93 1015.7
20260905040351 12 125 3.2 6.4 0.00 0.64 0.61 92 1015.6
20260905033344 12 121 3.2 6.4 0.00 0.69 0.61 91 1015.3
20260905031833 13 128 1.6 9.7 0.00 0.69 0.61 91 1015.1
20260905030323 13 132 6.4 11.3 0.00 0.69 0.61 90 1015.1
20260905024836 13 125 4.8 9.7 0.00 0.69 0.61 90 1015.0
20260905023326 13 107 8.0 16.1 0.00 0.81 0.61 89 1015.1
20260905021837 14 85 6.4 20.9 0.00 0.81 0.61 87 1014.9
20260905020348 15 80 12.9 20.9 0.00 0.81 0.61 86 1015.0
20260905014856 15 98 8.0 14.5 0.00 0.81 0.61 85 1014.9
20260905013322 15 109 4.8 14.5 0.00 0.86 0.61 85 1014.9
20260905011850 15 80 4.8 14.5 0.00 0.86 0.61 84 1014.7
20260905010321 15 116 3.2 16.1 0.00 0.86 0.61 83 1014.6
20260905004849 16 80 11.3 19.3 0.00 0.86 0.61 82 1014.6
20260905003337 16 72 4.8 16.1 0.00 0.86 0.61 82 1014.4
20260905001849 17 127 9.7 20.9 0.00 0.86 0.61 83 1014.3
20260905000340 16 119 4.8 14.5 0.00 0.86 0.61 86 1014.3
20260904234829 17 80 6.4 17.7 0.00 0.86 0.61 84 1014.2
20260904233357 17 98 11.3 20.9 0.00 0.91 0.61 86 1014.1
20260904231827 17 128 4.8 11.3 0.00 0.91 0.61 93 1013.9
20260904230341 16 105 3.2 12.9 0.00 0.91 0.61 93 1013.9
20260904224830 15 63 4.8 8.0 0.00 0.91 0.61 96 1014.0
20260904223322 15 36 1.6 6.4 0.03 0.97 0.61 95 1013.9
20260904221833 15 46 3.2 6.4 0.03 0.97 0.61 95 1013.9
20260904220344 15 80 4.8 9.7 0.05 0.97 0.61 97 1013.9
20260904214855 14 85 1.6 4.8 0.33 0.97 0.61 96 1013.9
20260904213348 13 90 3.2 6.4 0.30 1.14 0.58 95 1013.8
20260904211819 13 128 6.4 16.1 0.30 1.14 0.58 95 1013.8
20260904210330 13 189 1.6 17.7 0.28 1.12 0.56 93 1013.8
20260904204820 14 221 8.0 12.9 0.00 0.84 0.28 91 1013.5
20260904203332 15 172 11.3 17.7 0.00 1.02 0.28 89 1013.5
20260904201822 16 101 4.8 8.0 0.00 1.02 0.28 88 1013.2
20260904200329 15 347 3.2 11.3 0.00 1.02 0.28 92 1013.3
20260904194838 14 109 6.4 16.1 0.00 1.02 0.28 92 1013.3
20260904193349 14 15 4.8 16.1 0.00 1.02 0.28 93 1013.5
20260904191821 15 9 4.8 12.9 0.00 1.02 0.28 95 1013.4
20260904190333 14 11 8.0 14.5 0.00 1.02 0.28 96 1013.5
20260904184826 14 36 6.4 12.9 0.00 1.02 0.28 98 1013.5
20260904183334 13 341 3.2 9.7 0.00 1.04 0.28 97 1013.4
20260904181824 13 354 3.2 9.7 0.00 1.04 0.28 98 1013.3
20260904180354 13 330 3.2 6.4 0.00 1.04 0.28 98 1013.2
20260904174844 13 328 4.8 8.0 0.00 1.04 0.28 98 1013.1
20260904173335 13 329 4.8 6.4 0.00 1.30 0.28 98 1013.0
20260904171822 12 329 3.2 4.8 0.00 1.30 0.28 98 1012.9
20260904170332 12 332 3.2 8.0 0.00 1.30 0.28 98 1012.8
20260904164838 12 337 3.2 6.4 0.00 1.30 0.28 98 1012.7
20260904163325 12 342 0.0 4.8 0.00 1.30 0.28 98 1012.6
20260904161845 12 342 1.6 6.4 0.00 1.30 0.28 98 1012.6
20260904160354 12 345 3.2 6.4 0.00 1.30 0.28 98 1012.7
20260904154825 12 334 4.8 8.0 0.00 1.30 0.28 98 1012.5
20260904153333 11 337 1.6 6.4 0.03 1.30 0.28 98 1012.2
20260904151823 11 337 4.8 11.3 0.05 1.30 0.28 98 1012.3
20260904150329 11 333 3.2 6.4 0.08 1.30 0.28 98 1012.3
20260904144822 11 317 1.6 4.8 0.08 1.30 0.28 98 1012.2
20260904143331 11 318 1.6 6.4 0.05 1.32 0.25 98 1012.1
20260904141822 11 351 4.8 9.7 0.03 1.30 0.23 98 1011.9
20260904140330 11 332 1.6 4.8 0.00 1.27 0.20 98 1011.7
20260904134838 11 331 3.2 6.4 0.00 1.27 0.20 98 1011.4